#timestamp,LO_Frequency,Hit 
1504332015.4,286046992.9,N
1504332035.2,286046998.2,N
1504332055.0,286047002.6,N
1504332055.9,286047002.6,N
1504332075.8,286047005.9,N
1504332095.6,286047008.2,N
1504332115.4,286047013.6,N
1504332135.3,286047012.3,N
1504332155.1,286047008.1,N
1504332156.0,286047008.1,N
1504332175.8,286047011.3,N
1504332195.7,286047008.1,N
1504332215.5,286047014.1,N
1504332235.3,286047020.3,N
1504332255.2,286047018.7,N
1504332275.9,286047017.7,N
1504332295.7,286047023.2,N
1504332315.6,286047021.5,N
1504332335.4,286047022.6,N
1504332355.2,286047024.3,N
1504332375.0,286047023.9,N
1504332376.0,286047023.9,N
1504332395.8,286047030.0,N
1504332415.6,286047027.6,N
1504332435.4,286047027.9,N
1504332455.3,286047028.1,N
1504332475.1,286047031.0,N
1504332495.8,286047031.3,N
1504332515.7,286047032.0,N
1504332535.5,286047033.4,N
1504332555.3,286047032.3,N
1504332575.2,286047033.5,P
1504332595.0,286047016.3,N
1504332595.9,286047016.3,N
1504332615.7,286047021.5,N
1504332635.6,286047021.3,P
1504332655.4,286046999.4,P
1504332675.3,286046998.6,N
1504332695.1,286046998.8,N
1504332696.0,286046998.8,N
1504332715.8,286047002.3,N
1504332735.6,286046999.7,N
1504332755.5,286047002.8,N
1504332775.3,286046998.2,N
1504332795.1,286047001.6,N
1504332815.9,286047005.2,N
1504332835.7,286047005.6,N
1504332855.5,286047006.9,N
1504332875.4,286047007.4,N
1504332895.2,286047006.1,N
1504332915.0,286047008.6,N
1504332915.9,286047008.6,N
1504332935.8,286047009.2,N
1504332955.6,286047011.8,N
1504332975.4,286047015.5,N
1504332995.3,286047013.5,N
1504333015.1,286047011.3,N
1504333016.0,286047011.3,N
1504333035.8,286047012.9,N
1504333055.7,286047013.0,N
1504333075.5,286047012.9,N
1504333095.3,286047014.6,N
1504333115.1,286047015.3,N
1504333135.9,286047013.9,N
1504333155.7,286047014.8,N
1504333175.5,286047012.8,N
1504333195.4,286047014.1,N
1504333215.2,286047016.0,N
1504333235.0,286047016.5,N
1504333235.9,286047016.5,P
1504333255.8,286047008.4,N
1504333275.6,286047009.4,N
1504333295.5,286047012.4,P
1504333315.3,286046998.7,N
1504333335.1,286046999.3,N
1504333355.8,286046999.0,N
1504333375.7,286047004.0,N
1504333395.5,286047004.3,N
1504333415.3,286047002.6,N
1504333435.2,286047002.6,N
1504333455.9,286047005.2,N
1504333475.7,286047006.8,N
1504333495.6,286047006.6,N
1504333515.4,286047006.7,N
1504333535.2,286047004.5,N
1504333555.1,286047004.8,N
1504333556.0,286047004.8,N
1504333575.8,286047006.0,N
1504333595.6,286047005.1,N
1504333615.5,286047005.4,N
1504333635.3,286047010.4,P
1504333655.1,286047004.3,N
1504333675.9,286046999.7,N
1504333695.7,286047000.2,N
1504333715.5,286047004.4,N
1504333735.4,286047004.2,N
1504333755.2,286047002.1,N
1504333775.0,286047002.8,N
1504333775.9,286047002.8,N
1504333795.8,286047000.4,N
1504333815.6,286046999.5,N
1504333835.4,286047005.5,N
1504333855.2,286047003.5,N
1504333875.1,286047001.3,N
1504333876.0,286047001.3,N
1504333895.8,286047001.3,N
1504333915.6,286047003.1,N
1504333935.5,286047001.4,N
1504333955.3,286047000.5,N
1504333975.1,286046996.8,N
1504333995.9,286046998.0,N
1504334015.7,286046996.6,N
1504334035.5,286046999.3,N
1504334055.4,286046999.4,N
1504334075.2,286046996.5,N
1504334095.0,286046997.1,N
1504334095.9,286046997.1,N
1504334115.8,286046999.1,N
1504334135.6,286046999.2,N
1504334155.4,286046996.9,N
1504334175.3,286046995.3,N
1504334195.1,286046993.4,N
1504334196.0,286046993.4,N
1504334215.8,286046995.4,N
1504334235.7,286046998.1,N
1504334255.5,286046997.8,N
1504334275.3,286046996.1,N
1504334295.2,286046993.8,N
1504334315.9,286046993.7,N
1504334335.7,286046996.3,N
1504334355.5,286046997.0,N
1504334375.4,286047000.5,N
1504334395.2,286046999.8,N
1504334415.0,286046999.8,N
1504334415.9,286046999.8,N
1504334435.8,286047000.0,N
1504334455.6,286047000.5,N
1504334475.4,286046998.3,N
1504334495.3,286046998.6,N
1504334515.1,286046995.1,N
1504334535.8,286046996.9,N
1504334555.7,286046998.6,N
1504334575.5,286046999.8,N
1504334595.3,286046998.7,N
1504334615.2,286047001.3,N
1504334635.9,286047004.1,N
1504334655.7,286047000.3,N
1504334675.6,286047000.6,N
1504334695.4,286046997.7,N
1504334715.2,286046996.6,N
1504334735.0,286046998.2,N
1504334736.0,286046998.2,N
1504334755.8,286047002.6,N
1504334775.6,286047005.7,N
1504334795.4,286047000.6,N
1504334815.3,286047002.2,N
1504334835.1,286047001.9,N
1504334855.8,286046998.5,N
1504334875.7,286047002.2,N
1504334895.5,286047002.0,N
1504334915.3,286047001.0,N
1504334935.2,286046999.4,N
1504334955.9,286046999.8,N
1504334975.7,286046998.1,N
1504334995.6,286046998.5,N
1504335015.4,286046998.8,N
1504335035.2,286046999.3,N
1504335055.1,286046996.7,N
1504335056.0,286046996.7,N
1504335075.8,286046995.4,N
1504335095.6,286046996.5,N
1504335115.5,286046996.9,N
1504335135.3,286047000.0,N
1504335155.1,286046999.3,N
1504335175.8,286047000.4,N
1504335195.7,286047002.2,N
1504335215.5,286046999.8,N
1504335235.3,286046998.2,N
1504335255.2,286047000.9,N
1504335275.0,286046996.6,N
1504335275.9,286046996.6,N
1504335295.7,286046998.6,N
1504335315.6,286046999.8,N
1504335335.4,286046998.8,N
1504335355.2,286047000.8,N
1504335375.1,286046999.9,N
1504335376.0,286046999.9,N
1504335395.8,286047002.8,N
1504335415.6,286046998.5,N
1504335435.5,286046998.4,N
1504335455.3,286046997.1,N
1504335475.1,286046996.2,N
1504335495.9,286046996.1,N
1504335515.7,286046995.3,N
1504335535.5,286046995.3,N
1504335555.4,286046999.3,N
1504335575.2,286046998.2,N
1504335595.0,286046995.1,N
1504335595.9,286046995.1,N
